Theta_e
298 296 297 297 297 295 296 296 296 295 295 294 294 295 294 293 293 292 292 291 290 290 289 288 287 287 286 286 286 285 284 283
299 299 298 298 297 297 297 296 296 296 294 294 294 294 293 293 292 292 292 291 290 290 289 288 287 286 286 286 285 283 283 282
300 300 300 298 298 298 298 296 296 296 294 295 293 292 291 292 292 292 291 291 291 290 289 288 287 286 286 285 284 283 282 282
300 300 300 301 301 298 296 297 296 294 294 293 292 292 292 291 291 290 290 290 289 289 288 287 287 286 285 285 284 283 282 282
299 298 299 300 299 298 298 297 297 295 293 292 291 292 292 290 290 289 289 289 288 288 288 287 286 286 285 284 283 282 281 281
298 297 297 298 299 298 298 297 296 295 293 292 292 291 290 290 289 288 288 287 288 287 285 284 285 285 284 283 282 281 280 279
296 296 296 296 296 296 296 295 296 294 293 293 291 290 290 289 287 287 286 285 285 284 284 283 283 283 283 282 281 280 279 278
296 296 295 295 295 295 293 293 293 292 293 292 291 290 288 288 286 285 284 283 283 283 282 281 281 281 281 280 281 280 278 278
295 293 294 294 293 293 291 291 291 291 291 291 290 288 287 286 285 284 283 283 282 282 281 280 280 281 282 279 279 278 278 277
291 292 292 292 292 292 291 290 289 289 288 289 288 287 285 284 283 283 282 281 281 280 280 279 278 281 282 280 277 276 276 276
288 289 290 290 291 291 291 290 289 287 289 288 287 286 284 283 282 282 281 281 280 279 279 279 278 281 282 280 277 276 275 275
285 286 287 288 288 290 290 290 290 290 286 287 286 285 283 282 281 281 280 279 279 278 277 277 277 280 282 281 277 276 275 275
284 284 283 282 285 286 287 289 289 289 288 283 283 283 282 281 280 279 278 277 276 276 275 275 276 279 282 282 278 277 275 275
281 279 279 280 280 280 280 282 287 288 286 285 281 281 280 279 277 276 276 276 275 274 275 273 274 277 282 282 279 277 274 275
278 277 277 276 276 277 278 279 279 282 285 283 281 279 278 278 277 276 275 276 275 275 275 274 273 274 279 281 281 277 275 275
276 275 274 274 273 273 274 274 275 277 282 282 279 278 277 276 276 276 276 277 276 276 275 274 273 273 277 279 279 278 276 275
272 272 271 271 271 270 270 271 272 274 276 281 279 277 276 276 275 277 277 276 278 277 276 275 276 275 277 278 279 276 274 273
270 269 269 268 268 268 268 269 270 271 273 277 279 278 275 275 275 275 276 278 278 278 278 276 276 276 278 279 278 277 273 271
267 266 266 266 265 266 266 268 269 270 272 274 279 277 276 275 275 275 275 277 276 278 278 278 277 277 278 278 278 277 270 271
264 264 264 264 265 265 267 268 269 270 272 274 277 278 276 275 274 274 275 276 276 277 279 277 277 278 278 278 276 270 268 269
Wind_Speed
8 5 6 13 20 24 25 31 35 39 42 41 45 47 45 44 44 44 43 42 42 45 47 44 40 37 35 33 29 26 24 22
8 5 8 10 16 22 29 34 36 40 43 42 46 48 48 48 46 45 44 43 42 43 47 47 44 40 38 36 33 30 26 23
9 7 8 14 20 27 31 36 42 42 41 47 43 43 43 48 50 48 46 44 44 44 45 49 48 46 43 40 36 33 31 27
9 11 9 18 24 27 28 38 39 37 40 37 39 42 47 48 47 48 47 46 45 44 48 50 52 50 47 44 41 38 33 31
16 14 20 26 28 29 32 35 36 36 39 40 42 51 49 44 45 48 49 48 47 49 50 51 53 52 49 45 42 37 33 29
16 15 19 28 34 37 35 33 32 36 35 41 43 41 40 42 46 47 46 48 50 48 47 48 51 54 52 49 43 38 33 29
16 16 16 23 26 31 36 39 33 31 38 39 32 34 42 40 42 43 43 45 45 46 48 49 49 50 51 49 44 39 34 31
15 15 23 28 31 29 35 38 38 33 34 35 37 37 39 37 36 36 39 39 42 44 46 46 47 43 41 44 45 41 37 32
14 23 27 31 31 31 35 32 34 31 29 29 31 34 35 34 36 35 38 41 40 41 44 42 42 39 40 36 42 40 37 34
25 27 28 29 30 31 31 30 27 26 26 26 23 25 26 28 30 30 32 32 35 37 39 38 35 36 37 36 36 32 32 30
24 27 29 30 30 29 27 27 25 32 26 27 25 24 24 25 25 24 28 29 30 30 36 41 42 42 42 37 35 31 29 28
24 24 26 31 34 32 28 26 29 39 30 19 18 22 23 22 23 26 27 24 25 27 27 34 40 43 42 39 37 37 34 31
20 23 27 28 26 29 29 29 31 37 33 20 12 14 15 19 19 21 22 23 22 22 21 25 30 37 41 41 32 32 34 30
21 27 28 24 25 29 33 35 34 30 30 28 19 13 16 20 18 17 19 18 17 20 20 19 25 31 35 38 30 28 28 28
22 25 30 29 30 29 32 32 35 33 29 27 24 18 19 22 24 23 22 20 18 19 19 20 23 28 29 31 31 25 22 22
23 26 34 33 35 30 30 31 33 34 31 25 24 19 19 22 24 27 30 33 29 28 27 28 28 38 41 35 31 29 29 31
25 27 31 32 37 37 31 28 31 32 28 27 22 19 20 20 18 25 24 24 27 26 32 31 28 39 46 43 38 33 35 34
28 31 34 35 36 34 33 32 33 32 30 27 24 20 19 19 19 11 22 22 26 27 27 26 27 35 41 42 41 38 32 24
31 37 36 36 38 31 32 33 34 33 34 30 29 22 20 21 18 17 16 14 19 27 25 26 27 36 40 38 35 32 21 25
35 36 34 34 38 31 31 33 34 34 33 30 29 24 24 19 18 19 18 18 18 20 25 27 28 37 41 42 32 29 26 27
Wind_Direction
330 306 227 211 212 211 215 215 218 219 217 214 218 222 222 223 222 221 221 218 217 213 214 211 210 209 209 207 206 206 208 209
312 316 271 239 226 222 222 225 224 225 223 221 224 223 221 222 225 225 222 219 217 215 213 211 210 209 209 209 207 206 206 209
288 316 262 239 237 235 235 233 233 231 224 225 223 221 220 221 225 224 222 220 218 214 212 211 211 209 209 208 209 209 204 206
328 313 296 276 262 252 247 244 243 233 228 224 223 223 223 222 222 222 220 219 215 213 212 210 211 209 209 211 211 211 209 208
3 352 359 355 348 332 298 272 256 242 231 224 220 225 224 221 220 221 220 218 215 213 213 212 210 210 209 211 212 213 211 212
345 349 350 350 347 343 338 314 279 252 236 230 228 224 221 219 219 218 219 218 216 210 211 209 208 207 209 210 209 209 209 209
339 347 345 339 338 335 335 334 312 275 247 244 238 228 218 214 212 211 212 211 211 208 205 205 205 205 206 209 206 206 208 207
344 342 333 329 330 331 330 332 325 287 266 248 234 226 222 211 208 203 204 203 203 203 203 203 203 197 195 202 205 204 206 208
335 325 326 326 324 325 329 327 338 321 285 258 238 224 217 209 205 199 199 202 200 200 202 202 201 189 189 186 203 202 204 205
319 316 312 318 321 322 327 324 337 341 321 291 251 232 217 208 204 198 196 197 199 198 193 194 194 190 189 184 192 191 195 200
316 318 315 316 318 316 319 325 330 331 338 323 283 244 225 216 206 202 201 199 194 193 196 196 191 189 190 185 183 180 183 193
321 315 312 320 322 315 316 318 321 333 316 318 286 254 238 224 211 203 194 191 189 187 190 194 194 190 191 188 181 183 180 184
305 302 311 310 314 309 308 317 320 319 315 293 268 249 243 226 204 202 192 182 177 174 175 191 193 193 191 192 191 190 183 181
309 310 307 309 311 306 309 317 315 302 299 293 279 233 223 212 203 190 193 189 179 179 183 185 191 193 196 194 191 189 188 186
309 305 304 310 307 304 308 311 314 306 295 282 267 243 226 212 205 193 193 195 193 191 190 182 181 185 194 194 192 188 179 172
297 300 297 306 301 301 304 307 303 298 291 274 257 231 216 213 207 209 214 201 196 202 192 180 187 189 180 178 184 178 178 173
291 290 290 295 295 301 302 299 293 288 287 271 247 229 217 211 218 226 230 222 219 214 204 206 210 187 182 182 184 176 169 173
292 292 293 291 288 293 295 293 286 283 283 283 252 234 218 210 209 207 220 226 222 219 214 210 198 193 188 183 178 177 173 173
293 291 290 289 285 290 287 284 281 281 280 275 271 231 222 214 205 209 202 202 202 215 211 205 197 187 182 179 174 175 174 174
286 286 288 285 286 291 287 284 284 283 279 276 278 236 221 210 193 197 199 198 190 185 196 189 191 183 179 175 171 164 170 184